Simultaneous Nadir Overpasses (SNOs) Predictions

Prediction of SNOs between GOES-16 and NOAA-19 Satellite Orbit:

Table of predicted SNOs for the next 14.0 days since TLE Epoch: 5/31/2019
Index Date Time (GOES-16) GOES-16 Lat,Lon NOAA-19 Lat,Lon Distance(km) Time Diff (sec)
1 05/31/2019 21:48:29 0.00, -75.19 0.40, -73.35 209.37 80
2 06/03/2019 10:09:30 -0.00, -75.21 0.70, -78.34 356.54 80
3 06/04/2019 09:57:52 -0.00, -75.21 0.05, -75.50 32.24 80
4 06/05/2019 09:43:35 0.00, -75.21 -0.59, -72.66 292.11 80
5 06/07/2019 22:04:53 0.00, -75.22 -0.56, -77.70 282.65 80
6 06/08/2019 21:55:55 0.01, -75.23 0.10, -74.86 42.14 80
7 06/09/2019 21:44:18 0.01, -75.24 0.77, -72.02 367.11 80
8 06/12/2019 10:05:18 -0.01, -75.27 0.41, -76.99 196.78 80
9 06/13/2019 09:51:02 -0.01, -75.29 -0.30, -74.17 128.76 80
10 06/14/2019 09:39:25 -0.02, -75.30 -0.95, -71.33 454.31 80




NCC Satellite Simultaneous Nadir Overpasses (SNOs) Prediction Service
